Location: Newark
(27.9675°N, 86.8869°E)
Time: 18:47:52
(UTC+00:00)

A-11 Canister half - Pass Details

Date: 31 October 2019
Orbit: 1527 x 1682 km, 47.3° (Epoch: 14 November)

Event Time Altitude Azimuth Distance (km) Brightness Sun altitude
Rises 15:37:00 0° 311° (NW) 4,712 12.0 -54.9°
Reaches altitude 10° 15:40:38 10° 322° (NW) 3,713 11.3 -55.7°
Enters shadow 15:42:16 15° 329° (NNW) 3,309 10.9 -56.0°
